Карточка аэропорта UIAA

Внимание!
Информация на этой странице в стадии наполнения.
Если вы не увидели какой-то информации, или заметили неточность - пожалуйста сообщите нам!
Спасибо!
Команда RU-STAFF
Название аэропортаКадала
Название аэропорта (англ.)Kadala
Превышение2271 ft. (692.2 m.)
Координаты52°1.5779999999999', 113°18.3'
Высота перехода1800m
Эшелон переходаFL100
Коды ответчика3350-3377
Зона ОрВДИркутск РПИ (UIII)
Данные METARUIAA 240800Z 05005G14MPS 9999 SCT050CB 28/16 Q1005 R29/CLRD70 NOSIG RMK QFE695/0927
Проноз погоды (TAF)UIAA 240500Z 2406/2506 18003G08MPS 9999 BKN030CB TX30/2407Z TN14/2421Z TEMPO 2406/2412 06005G10MPS 3100 -TSRA
NOTAMshow/hide NOTAM
AWOS   TABLE

Информация о ВПП


Диспетчерские позиции

Позывной Наименование органа УВД Частота
UIAA_TWRЧита-Вышка118.2
UIAA_APPЧита-Подход122.0



Спутниковое изображение